Regional Weather Roundup
Issued by NWS New Orleans/Baton Rouge, LA

Home | Current Version | Previous Version | Text Only | Print | Product List | Glossary On
Versions: 1 2 3 4 5 6 7 8 9 10 11 12 13 14 15 16 17 18 19 20 21 22 23 24 25 26 27 28 29 30 31 32 33 34 35 36 37 38 39 40 41 42 43 44 45 46 47 48 49 50
209
ASUS44 KLIX 010207
RWRLIX
NEW ORLEANS REGIONAL WEATHER ROUNDUP
NATIONAL WEATHER SERVICE NEW ORLEANS LA
900 PM CDT TUE MAR 31 2015

NOTE: "FAIR" INDICATES FEW OR NO CLOUDS BELOW 12,000 FEET WITH NO
      SIGNIFICANT WEATHER AND/OR OBSTRUCTIONS TO VISIBILITY.
      SKY/WX - SKY CONDITION AND SIGNIFICANT WEATHER.
      TMP - AIR TEMPERATURE.     DP    - DEWPOINT TEMPERATURE.
      RH  - RELATIVE HUMIDITY.   PRES  - PRESSURE.
      HI  - HEAT INDEX.          WCI   - WIND CHILL INDEX.

*  THESE STATIONS ARE NOT NWS OR FAA STATIONS AND ARE NOT UNDER
   NWS QUALITY CONTROL.

LAZ038-040-048-061>063-065>067-069-010300-
SOUTHEAST LOUISIANA

CITY           SKY/WX    TMP DP  RH WIND       PRES   REMARKS
N.O. AUDUBON     N/A     70  65  83 MISG        N/A
N.O. INTL ARPT PTCLDY    71  61  70 SW9       30.06R
N.O. LAKEFRONT CLEAR     75  62  64 SW13      30.06R
SLIDELL        CLEAR     73  61  65 SW6       30.05R
BATON ROUGE    PTCLDY    71  59  65 SW10      30.04R
BOOTHVILLE     PTCLDY    73  66  78 SW10      30.08R
BELLE CHASSE   PTCLDY    69  63  81 SW5       30.06R
BOGALUSA*        N/A     73  58  60 SW6       30.05R
GALLIANO*      CLEAR     72  65  77 SW6       30.07S
NEW ROADS*       N/A     69  56  63 S7        30.03S
GONZALES*        N/A     70  63  78 S3        30.05R
HAMMOND*       CLEAR     72  57  60 SW6       30.07R
HOUMA*         CLEAR     68  64  88 W3        30.07R
PORT FOURCHON* CLEAR     73  66  78 W10       30.11R

$$

MSZ070-080>082-010300-
SOUTHERN MISSISSIPPI

CITY           SKY/WX    TMP DP  RH WIND       PRES   REMARKS
MCCOMB         CLEAR     70  60  70 S7        30.03R
GULFPORT       CLEAR     73  65  75 SW6       30.04R
BILOXI         CLEAR     73  67  83 W13       30.04R
PASCAGOULA     PTCLDY    71  65  81 VRB7      30.05R

$$

COASTAL OBSERVATIONS
LAKE AND NEARSHORE STATIONS

STATION/POSITION TIME  TEMP    WIND        PRES    WAVE
                       AIR SEA DIR/SP/G            HT/PER
                 (UTC) (F)     (DEG/KT/KT) (MB)    (FT/S)
PASCAGOULA       0100   73     220/ 15/ 20 1016.5
WAVELAND YACHT   0100   75 70  230/  6/  8 1016.8
GRAND ISLE       0100   73 73  250/  8/ 11 1017.8
SOUTHWEST PASS   0100   66 56  250/  8/ 10 1018.8
NEW CANAL        0100   75     240/  9/ 13 1017.8
SHELL BEACH      0100   74 72  230/ 10/ 13 1017.5

OFFSHORE STATIONS

STATION/POSITION TIME  TEMP    WIND        PRES    WAVE
                       AIR SEA DIR/SP/G            HT/PER
                 (UTC) (F)     (DEG/KT/KT) (MB)    (FT/S)
64 S DAUPHIN ISL 0150   72 72  230/  8/  8 1019.0    2/ 7

$$




USA.gov is the U.S. government's official web portal to all federal, state and local government web resources and services.